星链-1865 (STARLINK-1865 )

导读

STARLINK-1865是美国太空探索技术公司(SpaceX)发射的星链(Starlink)卫星,属于星链互联网星座的一部分,于2020年10月24日发射升空,主要用于为全球提供低延迟、高速率的宽带互联网服务,尤其覆盖偏远地区等网络基础设施薄弱区域,推进星链星座的全球组网进程。

基本信息
目录编号:
46741
目录名称:
STARLINK-1865
国际标识:
2020-074C
轨道中心:
EARTH
卫星名称:
星链-1865
卫星全名:
星链-1865 (STARLINK-1865 )
卫星状态:
已陨落 最后检测时间 2025-02-27
发射日期:
2020-10-24 UTC
国别 :
美国 (US)
星等 :
--
轨道信息
数据来源 国际轨道数据
星历时间: 2025-02-27T00:26:03+0800
轨道信息已过期561天
半长轴: 6573.007km
偏心率: 0.0009253
轨道倾角: 53.029°
近地点辐角 329.575°
升交点赤经 159.824°
平近点角 186.177°
近地点: 188.789km
远地点: 200.955km
周期: 88.391分钟
每日圈数: 16.291334
详细信息
固有亮度:
5
最大亮度:
2.5
卫星平台:
Starlink V1.0
覆盖范围:
全球
运营商:
太空探索技术公司
运营商所在国:
美国
制造商(研发单位):
太空探索技术公司
制造商所在国:
美国
使用方式:
暂无
卫星简介
星链(Starlink)计划是由太空探索技术公司(SpaceX)提出的一个巨型低轨卫星互联网星座项目,计划在2019年至2024年间在太空搭建由约1.2万颗卫星组成的“星链”网络,其中1584颗将部署在地球上空550千米处的近地轨道,并从2020年开始工作。该卫星仍在工作。
与全量物体交会距离演化趋势
与全量物体交会风险概率演化趋势